Location: Rio Tanui
(39.9167°N, 8.5167°E)
Time: 02:17:23
(UTC+00:00)

BREEZE-M DEB (TANK) - Pass Details

Date: 08 February 2023
Orbit: 428 x 13835 km, 45.9° (Epoch: 31 March)

Event Time Altitude Azimuth Distance (km) Brightness Sun altitude
Rises 18:49:20 0° 295° (WNW) 2,730 6.9 -22.7°
Reaches altitude 10° 18:50:49 10° 298° (WNW) 2,073 6.1 -23.0°
Maximum altitude 18:55:01 75° 25° (NNE) 1,142 3.7 -23.8°
Enters shadow 18:58:36 39° 102° (ESE) 2,268 4.8 -24.4°
